World > North America > United States > Ohio > Mount Olive  

Mount Olive, OH Hourly Weather Updates

Feedback E-mail the Weather

Quick Clicks

Mount Olive, OH Weather Maps

°F °C°F °C
Mount Olive Weather Map
UTC Time: 6/23/2024, 12:18
Your Time:

Mount Olive, OH Regional Weather

Expires:202406231200;;519104
ASUS41 KCLE 231112
RWRCLE
OHIO REGIONAL WEATHER ROUNDUP
NATIONAL WEATHER SERVICE WILMINGTON, OH
700 AM EDT SUN JUN 23 2024

NOTE: "FAIR" INDICATES FEW OR NO CLOUDS BELOW 12,000 FEET WITH NO
SIGNIFICANT WEATHER AND/OR OBSTRUCTIONS TO VISIBILITY.


OHZ042-051>053-060>062-070>072-077>081-231200-
  SOUTHWEST OHIO
  
CITY           SKY/WX    TMP DP  RH WIND       PRES   REMARKS
CINC-COVINGTON MOCLDY    77  68  73 SW7       29.83R                  
CINC-LUNKEN    MOCLDY    78  69  73 SW9       29.81S                  
HAMILTON       CLOUDY    80  69  69 MISG      29.81S                  
DAYTON         CLOUDY    78  69  73 SW14      29.80R                  
WRIGHT-PAT AFB CLOUDY    80  68  65 SW13      29.78S                  
DAYTON GENERAL CLOUDY    80  67  64 SW15G24   29.80S                  
WILMINGTON     FAIR      78  68  71 SW14      29.82S                  
$$


SKY/WX - Weather  TMP - Temperature  DP - Dew Point  RH - Humidity
WIND - Wind Direction/Speed PRES - Barometric Pressure VSB - Visibility
WCI - Wind Chill Index E13G22 Wind - East Wind 13 mph/Gusts of 22 mph

Trending Headlines

Trending Entertainment Headlines

Mount Olive Radar Loop

Use the map search tool if you want to place a location marker on the radar map...

Mount Olive Quick Facts

National Two Day Weather Forecast


E-mail the Mount Olive Weather Forecast

Voice your opinion or tell us about page issues...